SCP
0 0 0 -0 0 -0 -0 -0 0 -0 -0 -0 -0 -0 -0 -0 -0 -0 -0 -0 -0 -0 -0 -0 -0 -0 -0 -0 -0 -0 -0 -0 -0 -0 -0 -0 -0 -0 -0 -0 -0 -0 -0
-0 0 0 -0 -0 -0 0 0 0 0 -0 -0 -0 -0 -0 -0 -0 -0 -0 -0 -0 -0 -0 -0 -0 -0 -0 -0 -0 -0 -0 -0 -0 -0 -0 -0 -0 -0 -0 -0 -0 -0 -0
-0 -0 -0 0 -0 -0 -0 0 0 0 -0 0 -0 -0 -0 -0 -0 -0 -0 -0 -0 -0 -0 -0 -0 -0 -0 -0 -0 -0 -0 -0 -0 -0 0 0 0 -0 -0 -0 -0 -0 -0
-0 0 0 -0 -0 -0 -0 -0 -0 -0 -0 -0 -0 -0 -0 -0 -0 -0 -0 -0 -0 -0 -0 -0 -0 -0 -0 -0 -0 -0 -0 -0 0 0 0 0 -0 -0 -0 -0 -0 -0 -0
0 -0 0 0 0 0 -0 0 0 0 -0 -0 -0 -0 -0 -0 -0 -0 -0 -0 -0 -0 -0 -0 -0 -0 -0 -0 -0 -0 -0 -0 -0 -0 -0 -0 -0 -0 -0 -0 -0 -0 -0
0 0 0 0 0 0 0 0 0 0 0 -0 0 -0 -0 -0 -0 -0 -0 -0 -0 -0 -0 -0 -0 -0 -0 -0 -0 -0 -0 -0 -0 0 0 -0 0 -0 -0 -0 -0 -0 -0
0 0 0 0 0 0 0 0 0 0 0 0 0 -0 -0 -0 -0 -0 -0 -0 -0 -0 -0 -0 -0 -0 -0 -0 -0 -0 -0 -0 0 0 0 0 -0 -0 -0 -0 -0 -0 -0
0 0 0 0 0 0 0 0 0 0 0 0 -0 -0 -0 -0 -0 -0 -0 -0 -0 -0 -0 -0 -0 -0 -0 -0 -0 -0 -0 -0 0 0 0 0 -0 -0 -0 -0 -0 -0 -0
-0 -0 0 0 0 0 0 0 0 0 -0 -0 -0 -0 -0 -0 -0 -0 -0 -0 -0 -0 -0 -0 -0 -0 -0 -0 -0 -0 -0 -0 0 0 0 0 0 -0 0 -0 -0 -0 0
-0 -0 -0 0 -0 -0 -0 -0 -0 -0 -0 -0 -0 -0 -0 -0 -0 -0 0 -0 -0 -0 -0 -0 -0 -0 -0 -0 -0 -0 -0 0 0 0 0 0 0 0 0 0 0 0 0
-0 -0 -0 -0 -0 -0 -0 -0 -0 -0 -0 -0 -0 -0 -0 -0 -0 0 0 -0 0 0 -0 -0 -0 -0 -0 -0 -0 0 0 0 0 0 0 0 0 0 0 0 0 0 0
-0 -0 -0 -0 -0 -0 -0 -0 -0 -0 -0 -0 -0 -0 0 0 0 0 0 0 0 0 0 0 0 0 0 0 0 0 0 0 0 0 0 0 0 0 0 0 0 0 0
-0 -0 -0 -0 -0 -0 -0 -0 0 0 0 0 0 0 0 0 0 0 0 0 0 0 0 0 0 0 0 0 0 0 0 0 0 0 0 0 0 0 0 0 0 0 0
-0 -0 -0 -0 -0 -0 -0 -0 -0 -0 0 0 0 0 0 0 0 0 0 0 0 0 0 0 0 0 0 0 0 0 0 0 0 0 0 0 0 0 0 0 0 0 0
-0 -0 -0 -0 -0 -0 -0 -0 -0 -0 0 0 0 0 0 0 0 0 0 0 0 0 0 0 0 0 0 0 0 0 0 0 0 0 0 0 0 0 0 0 0 0 0
-0 -0 -0 -0 -0 -0 -0 -0 -0 -0 -0 0 0 0 0 0 0 0 0 0 0 0 0 0 0 0 0 0 0 0 0 0 0 0 0 0 0 0 0 0 0 0 0
0 0 -0 -0 -0 -0 -0 0 0 0 0 0 0 0 0 0 0 0 0 0 0 0 0 0 0 0 0 0 0 0 0 0 0 0 0 0 0 0 0 0 0 0 0
0 0 0 0 0 0 0 0 0 0 0 0 0 0 0 0 0 0 0 0 0 0 0 0 0 0 0 0 0 0 0 0 0 0 0 0 0 0 0 0 0 0 0
0 0 0 0 0 0 0 0 0 0 0 0 0 0 0 0 0 0 0 0 0 0 0 0 0 0 0 0 0 0 0 0 0 0 0 0 0 0 0 0 0 0 0
0 0 0 0 0 0 0 0 0 0 0 0 0 0 0 0 0 0 0 0 0 0 0 0 0 0 0 0 0 0 0 0 0 0 0 0 0 0 0 0 0 0 0
0 0 0 0 0 0 0 0 0 0 0 0 0 0 0 0 0 0 0 0 0 0 0 0 0 0 0 0 0 0 0 0 0 0 0 0 0 0 0 0 0 0 0
0 0 0 0 0 0 0 0 0 0 0 0 0 0 0 0 0 0 0 0 0 0 0 0 0 0 0 0 0 0 0 0 0 0 0 0 0 0 0 0 0 0 0
0 0 0 0 0 0 0 0 0 0 0 0 0 0 0 0 0 0 0 0 0 0 0 0 0 0 0 0 0 0 0 0 0 0 0 0 0 0 0 0 0 0 0
0 0 0 0 0 0 0 0 0 0 0 0 0 0 0 0 0 0 0 0 0 0 0 0 0 0 0 0 0 0 0 0 0 0 0 0 0 0 0 0 0 0 0
0 0 0 0 0 0 0 0 0 0 0 0 0 0 0 0 0 0 0 0 0 0 0 0 0 0 0 0 0 0 0 0 0 0 0 0 0 0 0 0 0 0 0
0 0 0 0 0 0 0 0 0 0 0 0 0 0 0 0 0 0 0 0 0 0 0 0 0 0 0 0 0 0 0 0 0 0 0 0 0 0 0 0 0 0 0
Wind_Speed_500mb
44 39 34 31 27 26 22 17 12 14 17 22 18 18 22 23 23 24 27 29 31 32 30 28 27 25 23 22 27 27 30 34 35 36 39 41 40 37 35 35 38 38 39
47 41 37 29 25 20 19 19 18 16 18 22 20 24 20 19 24 26 27 31 31 32 32 30 29 27 24 23 23 26 22 25 34 34 35 34 33 32 29 29 32 36 32
45 40 37 22 20 22 19 17 17 17 20 29 23 18 17 20 24 26 28 32 34 33 33 33 31 29 27 25 24 23 20 22 27 31 33 36 31 32 28 31 30 32 30
44 42 33 27 20 22 20 18 15 18 20 29 27 18 12 17 21 25 26 27 34 34 31 32 32 29 29 27 26 26 26 27 28 31 34 38 37 35 34 29 36 32 29
44 39 32 28 22 21 20 18 16 16 19 28 28 17 10 17 23 23 22 24 31 32 30 28 28 28 28 27 28 30 29 32 38 39 35 31 28 23 30 33 32 31 29
42 37 31 26 22 19 17 16 14 15 16 22 25 16 11 16 19 19 18 16 19 29 26 25 25 26 26 27 30 35 40 40 36 31 29 29 27 17 21 25 25 25 23
41 37 31 27 23 21 18 18 16 16 16 19 21 14 9 10 15 14 13 12 16 25 21 21 24 24 25 26 26 37 37 35 33 28 28 22 21 23 17 16 17 16 14
41 38 32 28 24 22 20 18 17 16 15 15 16 11 7 7 11 11 10 8 12 22 24 25 23 21 21 24 31 32 31 30 28 24 19 15 7 7 11 12 12 17 22
38 34 32 29 26 22 19 17 15 14 13 13 11 9 8 7 9 9 8 7 10 16 18 14 16 16 19 21 27 25 24 20 14 13 11 9 8 10 7 9 12 20 22
40 34 31 31 29 25 21 18 16 15 13 12 11 9 7 6 8 9 8 7 10 16 15 13 14 15 15 17 15 13 13 11 7 4 4 9 12 17 11 10 16 12 18
44 39 35 33 31 28 25 21 18 17 14 12 11 8 6 5 7 8 7 7 8 11 13 13 12 13 12 11 9 7 6 5 0 4 7 10 13 8 3 13 11 16 19
54 48 42 39 36 33 29 26 23 20 17 14 11 8 5 5 5 6 6 7 6 9 10 10 11 10 9 6 4 2 2 3 2 7 9 7 16 21 9 6 14 16 15
54 50 47 43 40 38 35 31 29 25 22 18 15 13 10 7 5 4 5 5 5 7 8 9 9 8 6 4 2 1 1 1 5 2 4 8 17 25 6 10 12 15 15
52 48 45 44 45 43 39 38 34 32 28 26 22 19 14 12 9 7 9 7 6 5 7 8 8 7 5 4 4 4 3 5 5 2 7 10 16 23 16 6 6 10 12
48 47 45 45 45 46 45 42 43 39 35 31 29 25 22 19 16 13 12 9 9 8 7 7 9 8 6 6 5 5 3 3 4 8 12 13 14 16 15 7 8 7 7
47 49 46 45 42 41 40 41 42 42 40 38 35 31 28 26 24 21 18 14 13 11 9 10 9 4 3 2 4 6 8 9 11 11 12 17 21 19 21 8 8 10 10
44 48 51 48 46 46 44 40 40 35 31 39 38 37 36 33 31 29 26 22 15 14 11 9 9 7 8 12 11 11 14 17 24 21 20 20 22 24 26 23 26 17 13
47 50 51 52 53 54 51 50 46 43 37 33 39 41 41 37 37 35 34 31 28 26 25 20 24 23 20 22 26 26 29 29 31 28 31 32 31 29 29 28 28 26 24
49 51 55 57 59 58 58 58 58 54 51 44 38 40 39 39 41 42 41 39 37 37 38 37 36 35 39 35 36 37 37 39 39 39 40 42 42 40 38 36 36 33 31
54 54 55 59 61 62 62 64 66 65 63 59 52 46 42 44 44 44 45 45 48 48 46 46 50 50 48 45 45 45 45 46 47 47 51 51 52 51 49 47 44 42 41
49 58 60 62 61 66 68 72 74 73 71 70 64 56 53 51 50 50 48 48 51 52 54 54 54 57 55 57 56 56 58 55 59 58 59 62 63 62 60 58 56 52 50
54 56 58 61 64 66 68 67 73 71 75 71 70 67 61 63 61 59 59 58 58 62 62 63 64 58 64 64 65 61 59 58 63 66 68 71 73 70 70 68 67 64 61
43 61 64 64 64 64 65 67 71 72 74 72 72 73 70 64 65 68 66 69 59 63 68 69 70 74 73 73 71 64 29 41 46 50 52 54 65 75 75 76 76 74 70
32 34 55 64 65 62 64 70 72 72 75 71 70 69 69 64 65 69 62 61 65 69 70 69 75 79 80 82 82 87 85 80 53 37 54 54 54 63 62 76 79 81 78
11 22 25 34 53 57 60 64 68 74 75 72 70 67 62 61 59 56 58 60 65 70 68 73 68 73 80 99 98 91 97 91 94 89 60 76 74 74 69 66 75 82 78
8 3 7 14 26 40 49 56 62 67 71 73 73 72 70 65 61 58 53 57 62 64 68 74 71 75 72 75 89 92 98 94 92 87 102 95 99 80 78 81 78 82 80
Wind_Direction_500mb
155 146 142 133 127 124 114 112 105 123 116 107 114 93 89 83 82 86 95 100 97 92 96 114 120 125 128 119 111 108 103 102 99 97 94 96 94 92 95 96 94 90 91
153 152 143 138 136 125 114 116 118 124 116 117 102 96 89 87 82 91 95 96 99 99 94 106 111 117 118 116 110 120 121 103 103 104 100 94 97 95 97 96 93 92 89
158 153 152 143 138 131 114 110 113 120 128 115 107 92 87 80 84 95 97 92 94 97 94 97 102 107 109 109 112 112 106 110 119 118 105 100 96 100 96 92 89 99 102
163 159 155 144 139 117 109 98 101 104 117 122 118 117 93 81 79 99 99 98 99 99 102 92 92 94 97 99 101 99 97 98 96 85 82 84 87 90 86 94 95 86 84
167 161 154 145 138 124 120 115 109 114 120 130 128 135 101 88 82 96 101 102 101 104 100 96 92 87 91 93 95 98 98 92 91 91 96 96 98 104 104 95 100 98 97
168 163 155 149 144 132 123 119 118 112 110 121 130 140 116 83 88 95 103 99 92 109 103 96 86 88 92 91 91 91 92 94 95 98 98 99 94 97 105 107 112 110 104
172 172 165 160 155 147 142 141 132 125 117 122 134 148 133 75 82 90 100 100 102 113 103 91 90 90 90 91 95 106 104 103 103 99 101 103 102 95 98 112 116 108 112
173 173 173 170 167 159 155 149 139 127 121 123 135 135 114 72 76 85 102 98 87 114 107 108 88 93 96 90 107 103 108 112 111 113 105 93 97 89 102 108 109 110 107
181 183 181 181 177 170 165 155 149 140 136 138 143 129 110 93 91 96 113 104 94 114 119 106 87 96 79 85 109 115 113 120 113 122 109 99 4 341 90 101 103 112 121
187 192 193 192 189 184 179 173 168 162 158 152 151 139 124 112 100 105 120 120 107 120 114 118 104 94 88 92 95 87 78 110 126 118 57 15 21 78 107 99 117 131 120
196 201 203 204 202 197 194 190 186 185 182 174 165 153 133 111 109 117 123 111 110 110 113 119 105 97 89 83 76 62 62 100 261 311 36 26 79 60 8 148 136 123 120
203 206 210 209 210 209 207 204 204 204 203 197 189 184 178 166 150 142 137 120 115 109 111 117 115 105 93 76 51 352 292 301 335 98 84 15 356 9 86 125 133 132 118
204 210 211 214 215 218 217 217 217 218 218 217 215 214 210 201 187 174 150 142 135 116 115 126 128 120 109 90 59 78 67 142 15 38 23 348 349 354 95 109 111 126 130
212 213 214 218 217 221 223 227 228 228 228 228 227 227 229 225 215 208 184 167 166 153 145 144 139 128 104 64 50 64 32 331 1 289 317 323 334 335 0 115 127 140 142
214 215 218 220 221 222 227 231 234 235 236 235 233 232 231 228 223 220 207 190 187 176 165 160 150 134 111 75 68 75 23 7 217 294 286 299 303 303 313 158 148 151 153
220 220 221 221 220 220 227 232 237 241 239 239 236 236 237 233 229 226 220 208 194 189 171 165 165 170 183 113 15 336 282 288 312 320 320 310 310 290 302 299 272 183 187
230 228 229 230 230 231 233 238 240 244 244 243 242 238 239 237 234 230 226 221 223 221 216 232 219 266 270 265 267 252 296 302 287 279 283 280 283 296 293 293 296 292 279
234 235 235 235 236 238 240 243 246 249 252 254 245 245 239 241 241 239 234 235 234 238 230 239 244 251 260 268 248 252 242 242 249 266 273 272 274 280 284 276 273 281 285
239 239 240 240 241 242 244 247 250 252 254 255 253 248 244 243 243 245 241 239 241 243 243 237 239 248 247 251 252 256 255 249 254 254 256 263 268 271 275 274 273 269 266
243 241 242 243 244 245 246 248 250 251 252 253 253 250 249 248 247 243 250 248 245 244 245 249 252 252 257 258 263 260 264 266 259 260 264 261 265 266 266 268 270 270 265
243 239 238 239 240 241 240 242 245 248 250 252 254 252 250 250 251 249 250 255 256 257 255 252 254 257 261 261 260 263 264 262 264 264 262 267 262 262 263 264 265 266 262
247 242 240 241 240 240 242 244 246 249 252 255 256 257 254 250 251 252 255 259 262 258 255 253 253 254 259 260 257 259 262 268 272 270 268 265 267 263 261 263 262 263 262
248 240 237 238 240 241 242 243 243 246 249 250 251 255 258 255 252 252 256 255 255 257 263 263 260 254 255 256 258 252 239 246 271 267 270 273 268 266 265 263 263 261 261
242 238 236 235 236 238 240 241 243 245 246 250 253 256 259 263 262 264 260 268 261 256 259 264 263 266 255 257 253 255 256 256 258 267 266 271 268 269 268 267 265 262 259
255 240 243 241 237 238 239 242 245 247 251 252 254 254 256 262 264 263 259 267 275 258 266 264 267 268 269 258 256 262 255 254 257 254 265 264 269 277 267 280 270 266 263
71 118 222 236 236 236 238 241 245 248 250 252 252 254 258 261 263 266 266 265 264 270 270 274 269 274 272 269 268 263 264 262 266 264 261 269 268 279 277 274 277 267 273
Wind_Speed_850mb
44 39 34 31 27 26 22 17 12 14 17 22 18 18 22 23 23 24 27 29 31 32 30 28 27 25 23 22 27 27 30 34 35 36 39 41 40 37 35 35 38 38 39
47 41 37 29 25 20 19 19 18 16 18 22 20 24 20 19 24 26 27 31 31 32 32 30 29 27 24 23 23 26 22 25 34 34 35 34 33 32 29 29 32 36 32
45 40 37 22 20 22 19 17 17 17 20 29 23 18 17 20 24 26 28 32 34 33 33 33 31 29 27 25 24 23 20 22 27 31 33 36 31 32 28 31 30 32 30
44 42 33 27 20 22 20 18 15 18 20 29 27 18 12 17 21 25 26 27 34 34 31 32 32 29 29 27 26 26 26 27 28 31 34 38 37 35 34 29 36 32 29
44 39 32 28 22 21 20 18 16 16 19 28 28 17 10 17 23 23 22 24 31 32 30 28 28 28 28 27 28 30 29 32 38 39 35 31 28 23 30 33 32 31 29
42 37 31 26 22 19 17 16 14 15 16 22 25 16 11 16 19 19 18 16 19 29 26 25 25 26 26 27 30 35 40 40 36 31 29 29 27 17 21 25 25 25 23
41 37 31 27 23 21 18 18 16 16 16 19 21 14 9 10 15 14 13 12 16 25 21 21 24 24 25 26 26 37 37 35 33 28 28 22 21 23 17 16 17 16 14
41 38 32 28 24 22 20 18 17 16 15 15 16 11 7 7 11 11 10 8 12 22 24 25 23 21 21 24 31 32 31 30 28 24 19 15 7 7 11 12 12 17 22
38 34 32 29 26 22 19 17 15 14 13 13 11 9 8 7 9 9 8 7 10 16 18 14 16 16 19 21 27 25 24 20 14 13 11 9 8 10 7 9 12 20 22
40 34 31 31 29 25 21 18 16 15 13 12 11 9 7 6 8 9 8 7 10 16 15 13 14 15 15 17 15 13 13 11 7 4 4 9 12 17 11 10 16 12 18
44 39 35 33 31 28 25 21 18 17 14 12 11 8 6 5 7 8 7 7 8 11 13 13 12 13 12 11 9 7 6 5 0 4 7 10 13 8 3 13 11 16 19
54 48 42 39 36 33 29 26 23 20 17 14 11 8 5 5 5 6 6 7 6 9 10 10 11 10 9 6 4 2 2 3 2 7 9 7 16 21 9 6 14 16 15
54 50 47 43 40 38 35 31 29 25 22 18 15 13 10 7 5 4 5 5 5 7 8 9 9 8 6 4 2 1 1 1 5 2 4 8 17 25 6 10 12 15 15
52 48 45 44 45 43 39 38 34 32 28 26 22 19 14 12 9 7 9 7 6 5 7 8 8 7 5 4 4 4 3 5 5 2 7 10 16 23 16 6 6 10 12
48 47 45 45 45 46 45 42 43 39 35 31 29 25 22 19 16 13 12 9 9 8 7 7 9 8 6 6 5 5 3 3 4 8 12 13 14 16 15 7 8 7 7
47 49 46 45 42 41 40 41 42 42 40 38 35 31 28 26 24 21 18 14 13 11 9 10 9 4 3 2 4 6 8 9 11 11 12 17 21 19 21 8 8 10 10
44 48 51 48 46 46 44 40 40 35 31 39 38 37 36 33 31 29 26 22 15 14 11 9 9 7 8 12 11 11 14 17 24 21 20 20 22 24 26 23 26 17 13
47 50 51 52 53 54 51 50 46 43 37 33 39 41 41 37 37 35 34 31 28 26 25 20 24 23 20 22 26 26 29 29 31 28 31 32 31 29 29 28 28 26 24
49 51 55 57 59 58 58 58 58 54 51 44 38 40 39 39 41 42 41 39 37 37 38 37 36 35 39 35 36 37 37 39 39 39 40 42 42 40 38 36 36 33 31
54 54 55 59 61 62 62 64 66 65 63 59 52 46 42 44 44 44 45 45 48 48 46 46 50 50 48 45 45 45 45 46 47 47 51 51 52 51 49 47 44 42 41
49 58 60 62 61 66 68 72 74 73 71 70 64 56 53 51 50 50 48 48 51 52 54 54 54 57 55 57 56 56 58 55 59 58 59 62 63 62 60 58 56 52 50
54 56 58 61 64 66 68 67 73 71 75 71 70 67 61 63 61 59 59 58 58 62 62 63 64 58 64 64 65 61 59 58 63 66 68 71 73 70 70 68 67 64 61
43 61 64 64 64 64 65 67 71 72 74 72 72 73 70 64 65 68 66 69 59 63 68 69 70 74 73 73 71 64 29 41 46 50 52 54 65 75 75 76 76 74 70
32 34 55 64 65 62 64 70 72 72 75 71 70 69 69 64 65 69 62 61 65 69 70 69 75 79 80 82 82 87 85 80 53 37 54 54 54 63 62 76 79 81 78
11 22 25 34 53 57 60 64 68 74 75 72 70 67 62 61 59 56 58 60 65 70 68 73 68 73 80 99 98 91 97 91 94 89 60 76 74 74 69 66 75 82 78
8 3 7 14 26 40 49 56 62 67 71 73 73 72 70 65 61 58 53 57 62 64 68 74 71 75 72 75 89 92 98 94 92 87 102 95 99 80 78 81 78 82 80
Wind_Direction_850mb
155 146 142 133 127 124 114 112 105 123 116 107 114 93 89 83 82 86 95 100 97 92 96 114 120 125 128 119 111 108 103 102 99 97 94 96 94 92 95 96 94 90 91
153 152 143 138 136 125 114 116 118 124 116 117 102 96 89 87 82 91 95 96 99 99 94 106 111 117 118 116 110 120 121 103 103 104 100 94 97 95 97 96 93 92 89
158 153 152 143 138 131 114 110 113 120 128 115 107 92 87 80 84 95 97 92 94 97 94 97 102 107 109 109 112 112 106 110 119 118 105 100 96 100 96 92 89 99 102
163 159 155 144 139 117 109 98 101 104 117 122 118 117 93 81 79 99 99 98 99 99 102 92 92 94 97 99 101 99 97 98 96 85 82 84 87 90 86 94 95 86 84
167 161 154 145 138 124 120 115 109 114 120 130 128 135 101 88 82 96 101 102 101 104 100 96 92 87 91 93 95 98 98 92 91 91 96 96 98 104 104 95 100 98 97
168 163 155 149 144 132 123 119 118 112 110 121 130 140 116 83 88 95 103 99 92 109 103 96 86 88 92 91 91 91 92 94 95 98 98 99 94 97 105 107 112 110 104
172 172 165 160 155 147 142 141 132 125 117 122 134 148 133 75 82 90 100 100 102 113 103 91 90 90 90 91 95 106 104 103 103 99 101 103 102 95 98 112 116 108 112
173 173 173 170 167 159 155 149 139 127 121 123 135 135 114 72 76 85 102 98 87 114 107 108 88 93 96 90 107 103 108 112 111 113 105 93 97 89 102 108 109 110 107
181 183 181 181 177 170 165 155 149 140 136 138 143 129 110 93 91 96 113 104 94 114 119 106 87 96 79 85 109 115 113 120 113 122 109 99 4 341 90 101 103 112 121
187 192 193 192 189 184 179 173 168 162 158 152 151 139 124 112 100 105 120 120 107 120 114 118 104 94 88 92 95 87 78 110 126 118 57 15 21 78 107 99 117 131 120
196 201 203 204 202 197 194 190 186 185 182 174 165 153 133 111 109 117 123 111 110 110 113 119 105 97 89 83 76 62 62 100 261 311 36 26 79 60 8 148 136 123 120
203 206 210 209 210 209 207 204 204 204 203 197 189 184 178 166 150 142 137 120 115 109 111 117 115 105 93 76 51 352 292 301 335 98 84 15 356 9 86 125 133 132 118
204 210 211 214 215 218 217 217 217 218 218 217 215 214 210 201 187 174 150 142 135 116 115 126 128 120 109 90 59 78 67 142 15 38 23 348 349 354 95 109 111 126 130
212 213 214 218 217 221 223 227 228 228 228 228 227 227 229 225 215 208 184 167 166 153 145 144 139 128 104 64 50 64 32 331 1 289 317 323 334 335 0 115 127 140 142
214 215 218 220 221 222 227 231 234 235 236 235 233 232 231 228 223 220 207 190 187 176 165 160 150 134 111 75 68 75 23 7 217 294 286 299 303 303 313 158 148 151 153
220 220 221 221 220 220 227 232 237 241 239 239 236 236 237 233 229 226 220 208 194 189 171 165 165 170 183 113 15 336 282 288 312 320 320 310 310 290 302 299 272 183 187
230 228 229 230 230 231 233 238 240 244 244 243 242 238 239 237 234 230 226 221 223 221 216 232 219 266 270 265 267 252 296 302 287 279 283 280 283 296 293 293 296 292 279
234 235 235 235 236 238 240 243 246 249 252 254 245 245 239 241 241 239 234 235 234 238 230 239 244 251 260 268 248 252 242 242 249 266 273 272 274 280 284 276 273 281 285
239 239 240 240 241 242 244 247 250 252 254 255 253 248 244 243 243 245 241 239 241 243 243 237 239 248 247 251 252 256 255 249 254 254 256 263 268 271 275 274 273 269 266
243 241 242 243 244 245 246 248 250 251 252 253 253 250 249 248 247 243 250 248 245 244 245 249 252 252 257 258 263 260 264 266 259 260 264 261 265 266 266 268 270 270 265
243 239 238 239 240 241 240 242 245 248 250 252 254 252 250 250 251 249 250 255 256 257 255 252 254 257 261 261 260 263 264 262 264 264 262 267 262 262 263 264 265 266 262
247 242 240 241 240 240 242 244 246 249 252 255 256 257 254 250 251 252 255 259 262 258 255 253 253 254 259 260 257 259 262 268 272 270 268 265 267 263 261 263 262 263 262
248 240 237 238 240 241 242 243 243 246 249 250 251 255 258 255 252 252 256 255 255 257 263 263 260 254 255 256 258 252 239 246 271 267 270 273 268 266 265 263 263 261 261
242 238 236 235 236 238 240 241 243 245 246 250 253 256 259 263 262 264 260 268 261 256 259 264 263 266 255 257 253 255 256 256 258 267 266 271 268 269 268 267 265 262 259
255 240 243 241 237 238 239 242 245 247 251 252 254 254 256 262 264 263 259 267 275 258 266 264 267 268 269 258 256 262 255 254 257 254 265 264 269 277 267 280 270 266 263
71 118 222 236 236 236 238 241 245 248 250 252 252 254 258 261 263 266 266 265 264 270 270 274 269 274 272 269 268 263 264 262 266 264 261 269 268 279 277 274 277 267 273